CZ-6A R/B, 62237

Orbit data source: Space-Track

CZ-6A R/B, 62237 is space debris in LEO originally from a launch on Thu, 05 Dec 2024 UTC launched from the Taiyaun Space Center, China (TSC). Debris objects in space refer to the collection of defunct objects orbiting the Earth. Examples of debris include non-operational satellites, rocket bodies, and fragments generated from explosions, collisions, or faulty payload assembly.

Loading next visibility...
Identifier
62237, 2024-232A
Orbit
LEO
Country
Flag of CNCN / PRC
Related business
Manufacturer
SAST
Mission
Spacecraft
Bus & Motor
CZ-6A STAGE 2, YF-115
Mass
~6,000 kg wet, ~6,000 kg dry
Launch date (UTC)
2024-12-05 (10 months ago)
Launch vehicle
Unknown
Launch site
Taiyaun Space Center, China (TSC)
Object type
Payload
Rocket body
Debris
Shape & HBR
Unknown shape, 5.5 m
Radar Cross Section
Large (>1 m²)

Expand to show TLE details & history
Last TLE update: 18 hours ago

TLE from 18 hours ago
0 CZ-6A R/B
1 62237U 24232A   25287.83896433  .00008522  00000-0  19838-2 0  9999
2 62237  89.0308  43.5190 0100278 121.2656 239.8421 14.51705267 93822
Epoch: 2025-10-14T20:08Z
TLE epoch observation values (Epoch: 2025-10-14T20:08:06.518Z)
Latitude
-0.00008°
Longitude
77.8702°
Altitude
759.481 km
Speed
7.455 km/s
True Right ascension
02h 54m 04s
True Declination
0° 00' 00"
Sunlit
Object was in full shadow at epoch
Visualization orbit readout
Latitude
Unknown
Longitude
Unknown
Altitude
Unknown
Speed
Unknown
Apparent Right ascension
Unknown
Apparent Declination
Unknown
Sunlit
N/A
Visualization observer readout
Local Sidereal Time
09:05:32
Azimuth
Unknown
Elevation
Unknown
Doppler factor
Unknown
Orbital elements
Apogee altitude
788.138 km
Perigee altitude
645.841 km
Semi-major axis
7,095.127 km
Eccentricity
0.01003
Inclination
89.0308°
RAAN
43.519°
Arg. of periapsis
121.2656°
True anomaly
238.8548°
Mean anomaly
239.8421°
Eccentric anomaly
239.34783°
Mean motion
3.63164 °/min
Orbital period
99.13 mins
BSTAR
0.0019838
Loading maneuver chart data...
Computing Atmospheric mass density...
Loading historical data...
Loading historical data...
Loading historical data...
Loading historical data...
Loading historical data...
Loading historical data...
Loading historical data...

Documentation

Showing up to 5 results
|